Year,Month,Day,Hour,Minute,Value (Times are PST for temperature in C)
2014,02,08,00,00,-7.00
2014,02,08,00,01,-7.00
2014,02,08,00,02,-7.00
2014,02,08,00,03,-7.00
2014,02,08,00,04,-7.00
2014,02,08,00,05,-7.00
2014,02,08,00,06,-7.00
2014,02,08,00,07,-7.00
2014,02,08,00,08,-7.10
2014,02,08,00,09,-7.10
2014,02,08,00,10,-7.10
2014,02,08,00,11,-7.10
2014,02,08,00,12,-7.10
2014,02,08,00,13,-7.10
2014,02,08,00,14,-7.10
2014,02,08,00,15,-7.20
2014,02,08,00,16,-7.20
2014,02,08,00,17,-7.20
2014,02,08,00,18,-7.20
2014,02,08,00,19,-7.20
2014,02,08,00,20,-7.20
2014,02,08,00,21,-7.30
2014,02,08,00,22,-7.30
2014,02,08,00,23,-7.30
2014,02,08,00,24,-7.30
2014,02,08,00,25,-7.30
2014,02,08,00,26,-7.30
2014,02,08,00,27,-7.30
2014,02,08,00,28,-7.30
2014,02,08,00,29,-7.30
2014,02,08,00,30,-7.30
2014,02,08,00,31,-7.40
2014,02,08,00,32,-7.40
2014,02,08,00,33,-7.40
2014,02,08,00,34,-7.40
2014,02,08,00,35,-7.40
2014,02,08,00,36,-7.40
2014,02,08,00,37,-7.40
2014,02,08,00,38,-7.40
2014,02,08,00,39,-7.50
2014,02,08,00,40,-7.50
2014,02,08,00,41,-7.50
2014,02,08,00,42,-7.50
2014,02,08,00,43,-7.50
2014,02,08,00,44,-7.60
2014,02,08,00,45,-7.50
2014,02,08,00,46,-7.60
2014,02,08,00,47,-7.60
2014,02,08,00,48,-7.60
2014,02,08,00,49,-7.60
2014,02,08,00,50,-7.60
2014,02,08,00,51,-7.60
2014,02,08,00,52,-7.60
2014,02,08,00,53,-7.60
2014,02,08,00,54,-7.60
2014,02,08,00,55,-7.60
2014,02,08,00,56,-7.60
2014,02,08,00,57,-7.60
2014,02,08,00,58,-7.60
2014,02,08,00,59,-7.60
2014,02,08,01,00,-7.60
2014,02,08,01,01,-7.60
2014,02,08,01,02,-7.60
2014,02,08,01,03,-7.60
2014,02,08,01,04,-7.60
2014,02,08,01,05,-7.60
2014,02,08,01,06,-7.60
2014,02,08,01,07,-7.60
2014,02,08,01,08,-7.60
2014,02,08,01,09,-7.60
2014,02,08,01,10,-7.60
2014,02,08,01,11,-7.60
2014,02,08,01,12,-7.70
2014,02,08,01,13,-7.70
2014,02,08,01,14,-7.70
2014,02,08,01,15,-7.70
2014,02,08,01,16,-7.70
2014,02,08,01,17,-7.70
2014,02,08,01,18,-7.70
2014,02,08,01,19,-7.70
2014,02,08,01,20,-7.70
2014,02,08,01,21,-7.70
2014,02,08,01,22,-7.70
2014,02,08,01,23,-7.70
2014,02,08,01,24,-7.70
2014,02,08,01,25,-7.70
2014,02,08,01,26,-7.70
2014,02,08,01,27,-7.70
2014,02,08,01,28,-7.70
2014,02,08,01,29,-7.70
2014,02,08,01,30,-7.70
2014,02,08,01,31,-7.70
2014,02,08,01,32,-7.70
2014,02,08,01,33,-7.70
2014,02,08,01,34,-7.70
2014,02,08,01,35,-7.70
2014,02,08,01,36,-7.70
2014,02,08,01,37,-7.70
2014,02,08,01,38,-7.70
2014,02,08,01,39,-7.70
2014,02,08,01,40,-7.80
2014,02,08,01,41,-7.80
2014,02,08,01,42,-7.80
2014,02,08,01,43,-7.80
2014,02,08,01,44,-7.80
2014,02,08,01,45,-7.80
2014,02,08,01,46,-7.80
2014,02,08,01,47,-7.90
2014,02,08,01,48,-7.90
2014,02,08,01,49,-7.90
2014,02,08,01,50,-7.90
2014,02,08,01,51,-7.90
2014,02,08,01,52,-7.90
2014,02,08,01,53,-8.00
2014,02,08,01,54,-8.00
2014,02,08,01,55,-8.00
2014,02,08,01,56,-8.00
2014,02,08,01,57,-8.00
2014,02,08,01,58,-8.00
2014,02,08,01,59,-8.00
2014,02,08,02,00,-8.00
2014,02,08,02,01,-8.00
2014,02,08,02,02,-8.00
2014,02,08,02,03,-8.00
2014,02,08,02,04,-8.00
2014,02,08,02,05,-8.00
2014,02,08,02,06,-8.00
2014,02,08,02,07,-8.00
2014,02,08,02,08,-8.00
2014,02,08,02,09,-8.00
2014,02,08,02,10,-8.00
2014,02,08,02,11,-8.00
2014,02,08,02,12,-8.00
2014,02,08,02,13,-8.00
2014,02,08,02,14,-8.10
2014,02,08,02,15,-8.10
2014,02,08,02,16,-8.10
2014,02,08,02,17,-8.10
2014,02,08,02,18,-8.10
2014,02,08,02,19,-8.10
2014,02,08,02,20,-8.10
2014,02,08,02,21,-8.10
2014,02,08,02,22,-8.10
2014,02,08,02,23,-8.10
2014,02,08,02,24,-8.10
2014,02,08,02,25,-8.10
2014,02,08,02,26,-8.10
2014,02,08,02,27,-8.10
2014,02,08,02,28,-8.10
2014,02,08,02,29,-8.10
2014,02,08,02,30,-8.10
2014,02,08,02,31,-8.10
2014,02,08,02,32,-8.10
2014,02,08,02,33,-8.10
2014,02,08,02,34,-8.10
2014,02,08,02,35,-8.10
2014,02,08,02,36,-8.10
2014,02,08,02,37,-8.10
2014,02,08,02,38,-8.20
2014,02,08,02,39,-8.20
2014,02,08,02,40,-8.20
2014,02,08,02,41,-8.20
2014,02,08,02,42,-8.10
2014,02,08,02,43,-8.10
2014,02,08,02,44,-8.10
2014,02,08,02,45,-8.10
2014,02,08,02,46,-8.10
2014,02,08,02,47,-8.10
2014,02,08,02,48,-8.10
2014,02,08,02,49,-8.10
2014,02,08,02,50,-8.10
2014,02,08,02,51,-8.10
2014,02,08,02,52,-8.10
2014,02,08,02,53,-8.20
2014,02,08,02,54,-8.20
2014,02,08,02,55,-8.20
2014,02,08,02,56,-8.20
2014,02,08,02,57,-8.20
2014,02,08,02,58,-8.20
2014,02,08,02,59,-8.20
2014,02,08,03,00,-8.20
2014,02,08,03,01,-8.20
2014,02,08,03,02,-8.20
2014,02,08,03,03,-8.20
2014,02,08,03,04,-8.20
2014,02,08,03,05,-8.20
2014,02,08,03,06,-8.20
2014,02,08,03,07,-8.20
2014,02,08,03,08,-8.20
2014,02,08,03,09,-8.20
2014,02,08,03,10,-8.20
2014,02,08,03,11,-8.30
2014,02,08,03,12,-8.30
2014,02,08,03,13,-8.30
2014,02,08,03,14,-8.30
2014,02,08,03,15,-8.30
2014,02,08,03,16,-8.30
2014,02,08,03,17,-8.30
2014,02,08,03,18,-8.30
2014,02,08,03,19,-8.30
2014,02,08,03,20,-8.20
2014,02,08,03,21,-8.20
2014,02,08,03,22,-8.20
2014,02,08,03,23,-8.20
2014,02,08,03,24,-8.20
2014,02,08,03,25,-8.20
2014,02,08,03,26,-8.30
2014,02,08,03,27,-8.30
2014,02,08,03,28,-8.30
2014,02,08,03,29,-8.30
2014,02,08,03,30,-8.30
2014,02,08,03,31,-8.30
2014,02,08,03,32,-8.30
2014,02,08,03,33,-8.30
2014,02,08,03,34,-8.30
2014,02,08,03,35,-8.30
2014,02,08,03,36,-8.40
2014,02,08,03,37,-8.40
2014,02,08,03,38,-8.40
2014,02,08,03,39,-8.40
2014,02,08,03,40,-8.40
2014,02,08,03,41,-8.40
2014,02,08,03,42,-8.40
2014,02,08,03,43,-8.50
2014,02,08,03,44,-8.50
2014,02,08,03,45,-8.50
2014,02,08,03,46,-8.50
2014,02,08,03,47,-8.50
2014,02,08,03,48,-8.50
2014,02,08,03,49,-8.50
2014,02,08,03,50,-8.60
2014,02,08,03,51,-8.60
2014,02,08,03,52,-8.60
2014,02,08,03,53,-8.60
2014,02,08,03,54,-8.60
2014,02,08,03,55,-8.60
2014,02,08,03,56,-8.60
2014,02,08,03,57,-8.60
2014,02,08,03,58,-8.60
2014,02,08,03,59,-8.60
2014,02,08,04,00,-8.70
2014,02,08,04,01,-8.70
2014,02,08,04,02,-8.70
2014,02,08,04,03,-8.70
2014,02,08,04,04,-8.70
2014,02,08,04,05,-8.70
2014,02,08,04,06,-8.70
2014,02,08,04,07,-8.70
2014,02,08,04,08,-8.70
2014,02,08,04,09,-8.70
2014,02,08,04,10,-8.70
2014,02,08,04,11,-8.70
2014,02,08,04,12,-8.70
2014,02,08,04,13,-8.70
2014,02,08,04,14,-8.70
2014,02,08,04,15,-8.70
2014,02,08,04,16,-8.70
2014,02,08,04,17,-8.70
2014,02,08,04,18,-8.70
2014,02,08,04,19,-8.70
2014,02,08,04,20,-8.70
2014,02,08,04,21,-8.80
2014,02,08,04,22,-8.80
2014,02,08,04,23,-8.80
2014,02,08,04,24,-8.80
2014,02,08,04,25,-8.80
2014,02,08,04,26,-8.80
2014,02,08,04,27,-8.80
2014,02,08,04,28,-8.80
2014,02,08,04,29,-8.80
2014,02,08,04,30,-8.80
2014,02,08,04,31,-8.80
2014,02,08,04,32,-8.80
2014,02,08,04,33,-8.80
2014,02,08,04,34,-8.80
2014,02,08,04,35,-8.90
2014,02,08,04,36,-8.90
2014,02,08,04,37,-8.90
2014,02,08,04,38,-8.90
2014,02,08,04,39,-8.90
2014,02,08,04,40,-8.90
2014,02,08,04,41,-9.00
2014,02,08,04,42,-9.00
2014,02,08,04,43,-9.00
2014,02,08,04,44,-9.00
2014,02,08,04,45,-9.00
2014,02,08,04,46,-9.00
2014,02,08,04,47,-9.00
2014,02,08,04,48,-9.00
2014,02,08,04,49,-9.00
2014,02,08,04,50,-9.10
2014,02,08,04,51,-9.00
2014,02,08,04,52,-9.00
2014,02,08,04,53,-9.00
2014,02,08,04,54,-9.00
2014,02,08,04,55,-9.00
2014,02,08,04,56,-9.00
2014,02,08,04,57,-9.00
2014,02,08,04,58,-9.00
2014,02,08,04,59,-9.00
2014,02,08,05,00,-9.00
2014,02,08,05,01,-9.00
2014,02,08,05,02,-9.00
2014,02,08,05,03,-9.00
2014,02,08,05,04,-9.00
2014,02,08,05,05,-9.00
2014,02,08,05,06,-9.00
2014,02,08,05,07,-9.00
2014,02,08,05,08,-9.00
2014,02,08,05,09,-8.90
2014,02,08,05,10,-8.90
2014,02,08,05,11,-8.90
2014,02,08,05,12,-8.90
2014,02,08,05,13,-8.90
2014,02,08,05,14,-8.90
2014,02,08,05,15,-8.90
2014,02,08,05,16,-8.90
2014,02,08,05,17,-8.90
2014,02,08,05,18,-8.90
2014,02,08,05,19,-8.90
2014,02,08,05,20,-8.90
2014,02,08,05,21,-8.90
2014,02,08,05,22,-8.90
2014,02,08,05,23,-8.90
2014,02,08,05,24,-8.90
2014,02,08,05,25,-9.00
2014,02,08,05,26,-9.00
2014,02,08,05,27,-9.00
2014,02,08,05,28,-9.00
2014,02,08,05,29,-9.00
2014,02,08,05,30,-9.00
2014,02,08,05,31,-9.00
2014,02,08,05,32,-9.00
2014,02,08,05,33,-9.00
2014,02,08,05,34,-9.00
2014,02,08,05,35,-9.10
2014,02,08,05,36,-9.10
2014,02,08,05,37,-9.10
2014,02,08,05,38,-9.10
2014,02,08,05,39,-9.10
2014,02,08,05,40,-9.10
2014,02,08,05,41,-9.10
2014,02,08,05,42,-9.10
2014,02,08,05,43,-9.10
2014,02,08,05,44,-9.10
2014,02,08,05,45,-9.10
2014,02,08,05,46,-9.10
2014,02,08,05,47,-9.10
2014,02,08,05,48,-9.20
2014,02,08,05,49,-9.20
2014,02,08,05,50,-9.20
2014,02,08,05,51,-9.20
2014,02,08,05,52,-9.20
2014,02,08,05,53,-9.20
2014,02,08,05,54,-9.20
2014,02,08,05,55,-9.20
2014,02,08,05,56,-9.20
2014,02,08,05,57,-9.20
2014,02,08,05,58,-9.20
2014,02,08,05,59,-9.30
2014,02,08,06,00,-9.30
2014,02,08,06,01,-9.30
2014,02,08,06,02,-9.30
2014,02,08,06,03,-9.30
2014,02,08,06,04,-9.30
2014,02,08,06,05,-9.30
2014,02,08,06,06,-9.40
2014,02,08,06,07,-9.40
2014,02,08,06,08,-9.40
2014,02,08,06,09,-9.40
2014,02,08,06,10,-9.40
2014,02,08,06,11,-9.40
2014,02,08,06,12,-9.40
2014,02,08,06,13,-9.50
2014,02,08,06,14,-9.50
2014,02,08,06,15,-9.50
2014,02,08,06,16,-9.50
2014,02,08,06,17,-9.40
2014,02,08,06,18,-9.40
2014,02,08,06,19,-9.40
2014,02,08,06,20,-9.40
2014,02,08,06,21,-9.40
2014,02,08,06,22,-9.30
2014,02,08,06,23,-9.30
2014,02,08,06,24,-9.30
2014,02,08,06,25,-9.30
2014,02,08,06,26,-9.30
2014,02,08,06,27,-9.30
2014,02,08,06,28,-9.30
2014,02,08,06,29,-9.30
2014,02,08,06,30,-9.30
2014,02,08,06,31,-9.30
2014,02,08,06,32,-9.30
2014,02,08,06,33,-9.30
2014,02,08,06,34,-9.30
2014,02,08,06,35,-9.30
2014,02,08,06,36,-9.30
2014,02,08,06,37,-9.30
2014,02,08,06,38,-9.30
2014,02,08,06,39,-9.30
2014,02,08,06,40,-9.40
2014,02,08,06,41,-9.40
2014,02,08,06,42,-9.40
2014,02,08,06,43,-9.40
2014,02,08,06,44,-9.40
2014,02,08,06,45,-9.40
2014,02,08,06,46,-9.40
2014,02,08,06,47,-9.50
2014,02,08,06,48,-9.50
2014,02,08,06,49,-9.50
2014,02,08,06,50,-9.50
2014,02,08,06,51,-9.50
2014,02,08,06,52,-9.50
2014,02,08,06,53,-9.50
2014,02,08,06,54,-9.50
2014,02,08,06,55,-9.50
2014,02,08,06,56,-9.50
2014,02,08,06,57,-9.50
2014,02,08,06,58,-9.50
2014,02,08,06,59,-9.50
2014,02,08,07,00,-9.50
2014,02,08,07,01,-9.50
2014,02,08,07,02,-9.50
2014,02,08,07,03,-9.50
2014,02,08,07,04,-9.50
2014,02,08,07,05,-9.50
2014,02,08,07,06,-9.50
2014,02,08,07,07,-9.50
2014,02,08,07,08,-9.60
2014,02,08,07,09,-9.60
2014,02,08,07,10,-9.60
2014,02,08,07,11,-9.60
2014,02,08,07,12,-9.60
2014,02,08,07,13,-9.60
2014,02,08,07,14,-9.60
2014,02,08,07,15,-9.60
2014,02,08,07,16,-9.60
2014,02,08,07,17,-9.60
2014,02,08,07,18,-9.60
2014,02,08,07,19,-9.60
2014,02,08,07,20,-9.60
2014,02,08,07,21,-9.60
2014,02,08,07,22,-9.60
2014,02,08,07,23,-9.60
2014,02,08,07,24,-9.60
2014,02,08,07,25,-9.60
2014,02,08,07,26,-9.60
2014,02,08,07,27,-9.60
2014,02,08,07,28,-9.60
2014,02,08,07,29,-9.60
2014,02,08,07,30,-9.50
2014,02,08,07,31,-9.50
2014,02,08,07,32,-9.50
2014,02,08,07,33,-9.50
2014,02,08,07,34,-9.50
2014,02,08,07,35,-9.50
2014,02,08,07,36,-9.50
2014,02,08,07,37,-9.50
2014,02,08,07,38,-9.40
2014,02,08,07,39,-9.40
2014,02,08,07,40,-9.40
2014,02,08,07,41,-9.40
2014,02,08,07,42,-9.40
2014,02,08,07,43,-9.40
2014,02,08,07,44,-9.40
2014,02,08,07,45,-9.40
2014,02,08,07,46,-9.40
2014,02,08,07,47,-9.40
2014,02,08,07,48,-9.40
2014,02,08,07,49,-9.40
2014,02,08,07,50,-9.40
2014,02,08,07,51,-9.40
2014,02,08,07,52,-9.40
2014,02,08,07,53,-9.40
2014,02,08,07,54,-9.40
2014,02,08,07,55,-9.40
2014,02,08,07,56,-9.40
2014,02,08,07,57,-9.40
2014,02,08,07,58,-9.50
2014,02,08,07,59,-9.50
2014,02,08,08,00,-9.50
2014,02,08,08,01,-9.50
2014,02,08,08,02,-9.50
2014,02,08,08,03,-9.40
2014,02,08,08,04,-9.40
2014,02,08,08,05,-9.40
2014,02,08,08,06,-9.40
2014,02,08,08,07,-9.30
2014,02,08,08,08,-9.30
2014,02,08,08,09,-9.30
2014,02,08,08,10,-9.30
2014,02,08,08,11,-9.20
2014,02,08,08,12,-9.20
2014,02,08,08,13,-9.20
2014,02,08,08,14,-9.20
2014,02,08,08,15,-9.20
2014,02,08,08,16,-9.20
2014,02,08,08,17,-9.10
2014,02,08,08,18,-9.10
2014,02,08,08,19,-9.10
2014,02,08,08,20,-9.10
2014,02,08,08,21,-9.00
2014,02,08,08,22,-9.00
2014,02,08,08,23,-8.90
2014,02,08,08,24,-8.90
2014,02,08,08,25,-8.80
2014,02,08,08,26,-8.80
2014,02,08,08,27,-8.80
2014,02,08,08,28,-8.70
2014,02,08,08,29,-8.70
2014,02,08,08,30,-8.70
2014,02,08,08,31,-8.60
2014,02,08,08,32,-8.60
2014,02,08,08,33,-8.50
2014,02,08,08,34,-8.50
2014,02,08,08,35,-8.50
2014,02,08,08,36,-8.40
2014,02,08,08,37,-8.40
2014,02,08,08,38,-8.30
2014,02,08,08,39,-8.30
2014,02,08,08,40,-8.20
2014,02,08,08,41,-8.20
2014,02,08,08,42,-8.20
2014,02,08,08,43,-8.10
2014,02,08,08,44,-8.10
2014,02,08,08,45,-8.00
2014,02,08,08,46,-7.90
2014,02,08,08,47,-7.90
2014,02,08,08,48,-7.90
2014,02,08,08,49,-7.80
2014,02,08,08,50,-7.80
2014,02,08,08,51,-7.80
2014,02,08,08,52,-7.70
2014,02,08,08,53,-7.70
2014,02,08,08,54,-7.70
2014,02,08,08,55,-7.60
2014,02,08,08,56,-7.50
2014,02,08,08,57,-7.50
2014,02,08,08,58,-7.40
2014,02,08,08,59,-7.40
2014,02,08,09,00,-7.30
2014,02,08,09,01,-7.30
2014,02,08,09,02,-7.20
2014,02,08,09,03,-7.20
2014,02,08,09,04,-7.20
2014,02,08,09,05,-7.10
2014,02,08,09,06,-7.10
2014,02,08,09,07,-7.00
2014,02,08,09,08,-6.90
2014,02,08,09,09,-6.90
2014,02,08,09,10,-6.80
2014,02,08,09,11,-6.80
2014,02,08,09,12,-6.80
2014,02,08,09,13,-6.70
2014,02,08,09,14,-6.70
2014,02,08,09,15,-6.60
2014,02,08,09,16,-6.60
2014,02,08,09,17,-6.50
2014,02,08,09,18,-6.50
2014,02,08,09,19,-6.40
2014,02,08,09,20,-6.40
2014,02,08,09,21,-6.30
2014,02,08,09,22,-6.20
2014,02,08,09,23,-6.20
2014,02,08,09,24,-6.10
2014,02,08,09,25,-6.00
2014,02,08,09,26,-6.00
2014,02,08,09,27,-5.90
2014,02,08,09,28,-5.80
2014,02,08,09,29,-5.80
2014,02,08,09,30,-5.70
2014,02,08,09,31,-5.70
2014,02,08,09,32,-5.60
2014,02,08,09,33,-5.50
2014,02,08,09,34,-5.50
2014,02,08,09,35,-5.40
2014,02,08,09,36,-5.30
2014,02,08,09,37,-5.30
2014,02,08,09,38,-5.20
2014,02,08,09,39,-5.10
2014,02,08,09,40,-5.10
2014,02,08,09,41,-5.00
2014,02,08,09,42,-5.00
2014,02,08,09,43,-4.90
2014,02,08,09,44,-4.80
2014,02,08,09,45,-4.80
2014,02,08,09,46,-4.70
2014,02,08,09,47,-4.70
2014,02,08,09,48,-4.60
2014,02,08,09,49,-4.50
2014,02,08,09,50,-4.50
2014,02,08,09,51,-4.40
2014,02,08,09,52,-4.30
2014,02,08,09,53,-4.30
2014,02,08,09,54,-4.20
2014,02,08,09,55,-4.20
2014,02,08,09,56,-4.10
2014,02,08,09,57,-4.00
2014,02,08,09,58,-3.90
2014,02,08,09,59,-3.90
2014,02,08,10,00,-3.80
2014,02,08,10,01,-3.70
2014,02,08,10,02,-3.70
2014,02,08,10,03,-3.60
2014,02,08,10,04,-3.50
2014,02,08,10,05,-3.50
2014,02,08,10,06,-3.40
2014,02,08,10,07,-3.30
2014,02,08,10,08,-3.20
2014,02,08,10,09,-3.20
2014,02,08,10,10,-3.10
2014,02,08,10,11,-3.00
2014,02,08,10,12,-2.90
2014,02,08,10,13,-2.80
2014,02,08,10,14,-2.80
2014,02,08,10,15,-2.70
2014,02,08,10,16,-2.60
2014,02,08,10,17,-2.50
2014,02,08,10,18,-2.50
2014,02,08,10,19,-2.40
2014,02,08,10,20,-2.30
2014,02,08,10,21,-2.20
2014,02,08,10,22,-2.10
2014,02,08,10,23,-2.10
2014,02,08,10,24,-2.00
2014,02,08,10,25,-1.90
2014,02,08,10,26,-1.90
2014,02,08,10,27,-1.80
2014,02,08,10,28,-1.80
2014,02,08,10,29,-1.70
2014,02,08,10,30,-1.70
2014,02,08,10,31,-1.70
2014,02,08,10,32,-1.60
2014,02,08,10,33,-1.60
2014,02,08,10,34,-1.50
2014,02,08,10,35,-1.40
2014,02,08,10,36,-1.40
2014,02,08,10,37,-1.40
2014,02,08,10,38,-1.30
2014,02,08,10,39,-1.30
2014,02,08,10,40,-1.20
2014,02,08,10,41,-1.20
2014,02,08,10,42,-1.20
2014,02,08,10,43,-1.10
2014,02,08,10,44,-1.10
2014,02,08,10,45,-1.10
2014,02,08,10,46,-1.10
2014,02,08,10,47,-1.00
2014,02,08,10,48,-1.00
2014,02,08,10,49,-0.90
2014,02,08,10,50,-0.90
2014,02,08,10,51,-0.90
2014,02,08,10,52,-0.80
2014,02,08,10,53,-0.80
2014,02,08,10,54,-0.80
2014,02,08,10,55,-0.70
2014,02,08,10,56,-0.70
2014,02,08,10,57,-0.60
2014,02,08,10,58,-0.60
2014,02,08,10,59,-0.60
2014,02,08,11,00,-0.50
2014,02,08,11,01,-0.40
2014,02,08,11,02,-0.40
2014,02,08,11,03,-0.30
2014,02,08,11,04,-0.30
2014,02,08,11,05,-0.20
2014,02,08,11,06,-0.20
2014,02,08,11,07,-0.10
2014,02,08,11,08,0.00
2014,02,08,11,09,0.00
2014,02,08,11,10,0.10
2014,02,08,11,11,0.10
2014,02,08,11,12,0.20
2014,02,08,11,13,0.20
2014,02,08,11,14,0.20
2014,02,08,11,15,0.30
2014,02,08,11,16,0.30
2014,02,08,11,17,0.40
2014,02,08,11,18,0.40
2014,02,08,11,19,0.50
2014,02,08,11,20,0.50
2014,02,08,11,21,0.60
2014,02,08,11,22,0.60
2014,02,08,11,23,0.70
2014,02,08,11,24,0.70
2014,02,08,11,25,0.80
2014,02,08,11,26,0.80
2014,02,08,11,27,0.80
2014,02,08,11,28,0.80
2014,02,08,11,29,0.80
2014,02,08,11,30,0.80
2014,02,08,11,31,0.80
2014,02,08,11,32,0.80
2014,02,08,11,33,0.80
2014,02,08,11,34,0.90
2014,02,08,11,35,0.90
2014,02,08,11,36,0.90
2014,02,08,11,37,1.00
2014,02,08,11,38,1.00
2014,02,08,11,39,1.00
2014,02,08,11,40,1.10
2014,02,08,11,41,1.10
2014,02,08,11,42,1.10
2014,02,08,11,43,1.10
2014,02,08,11,44,1.20
2014,02,08,11,45,1.20
2014,02,08,11,46,1.20
2014,02,08,11,47,1.20
2014,02,08,11,48,1.20
2014,02,08,11,49,1.20
2014,02,08,11,50,1.30
2014,02,08,11,51,1.30
2014,02,08,11,52,1.30
2014,02,08,11,53,1.30
2014,02,08,11,54,1.30
2014,02,08,11,55,1.30
2014,02,08,11,56,1.40
2014,02,08,11,57,1.50
2014,02,08,11,58,1.60
2014,02,08,11,59,1.60
2014,02,08,12,00,1.70
2014,02,08,12,01,1.70
2014,02,08,12,02,1.70
2014,02,08,12,03,1.80
2014,02,08,12,04,1.80
2014,02,08,12,05,1.80
2014,02,08,12,06,1.80
2014,02,08,12,07,1.80
2014,02,08,12,08,1.90
2014,02,08,12,09,1.80
2014,02,08,12,10,1.80
2014,02,08,12,11,1.80
2014,02,08,12,12,1.80
2014,02,08,12,13,1.90
2014,02,08,12,14,1.90
2014,02,08,12,15,1.90
2014,02,08,12,16,1.90
2014,02,08,12,17,1.90
2014,02,08,12,18,1.80
2014,02,08,12,19,1.80
2014,02,08,12,20,1.80
2014,02,08,12,21,1.80
2014,02,08,12,22,1.90
2014,02,08,12,23,1.90
2014,02,08,12,24,1.90
2014,02,08,12,25,1.90
2014,02,08,12,26,1.90
2014,02,08,12,27,1.80
2014,02,08,12,28,1.80
2014,02,08,12,29,1.80
2014,02,08,12,30,1.80
2014,02,08,12,31,1.80
2014,02,08,12,32,1.80
2014,02,08,12,33,1.80
2014,02,08,12,34,1.80
2014,02,08,12,35,1.90
2014,02,08,12,36,1.90
2014,02,08,12,37,1.90
2014,02,08,12,38,1.90
2014,02,08,12,39,1.90
2014,02,08,12,40,1.90
2014,02,08,12,41,1.90
2014,02,08,12,42,1.90
2014,02,08,12,43,1.90
2014,02,08,12,44,1.90
2014,02,08,12,45,1.90
2014,02,08,12,46,1.80
2014,02,08,12,47,1.80
2014,02,08,12,48,1.90
2014,02,08,12,49,1.90
2014,02,08,12,50,1.90
2014,02,08,12,51,2.00
2014,02,08,12,52,2.00
2014,02,08,12,53,2.00
2014,02,08,12,54,2.10
2014,02,08,12,55,2.10
2014,02,08,12,56,2.10
2014,02,08,12,57,2.20
2014,02,08,12,58,2.20
2014,02,08,12,59,2.20
2014,02,08,13,00,2.20
2014,02,08,13,01,2.20
2014,02,08,13,02,2.20
2014,02,08,13,03,2.20
2014,02,08,13,04,2.30
2014,02,08,13,05,2.30
2014,02,08,13,06,2.30
2014,02,08,13,07,2.30
2014,02,08,13,08,2.30
2014,02,08,13,09,2.30
2014,02,08,13,10,2.30
2014,02,08,13,11,2.30
2014,02,08,13,12,2.40
2014,02,08,13,13,2.40
2014,02,08,13,14,2.40
2014,02,08,13,15,2.40
2014,02,08,13,16,2.40
2014,02,08,13,17,2.40
2014,02,08,13,18,2.40
2014,02,08,13,19,2.40
2014,02,08,13,20,2.30
2014,02,08,13,21,2.30
2014,02,08,13,22,2.30
2014,02,08,13,23,2.30
2014,02,08,13,24,2.30
2014,02,08,13,25,2.40
2014,02,08,13,26,2.40
2014,02,08,13,27,2.40
2014,02,08,13,28,2.40
2014,02,08,13,29,2.40
2014,02,08,13,30,2.40
2014,02,08,13,31,2.40
2014,02,08,13,32,2.40
2014,02,08,13,33,2.40
2014,02,08,13,34,2.40
2014,02,08,13,35,2.40
2014,02,08,13,36,2.40
2014,02,08,13,37,2.40
2014,02,08,13,38,2.40
2014,02,08,13,39,2.40
2014,02,08,13,40,2.50
2014,02,08,13,41,2.50
2014,02,08,13,42,2.60
2014,02,08,13,43,2.60
2014,02,08,13,44,2.60
2014,02,08,13,45,2.60
2014,02,08,13,46,2.70
2014,02,08,13,47,2.70
2014,02,08,13,48,2.80
2014,02,08,13,49,2.80
2014,02,08,13,50,2.80
2014,02,08,13,51,2.80
2014,02,08,13,52,2.80
2014,02,08,13,53,2.80
2014,02,08,13,54,2.80
2014,02,08,13,55,2.80
2014,02,08,13,56,2.80
2014,02,08,13,57,2.80
2014,02,08,13,58,2.80
2014,02,08,13,59,2.80
2014,02,08,14,00,2.80
2014,02,08,14,01,2.90
2014,02,08,14,02,2.90
2014,02,08,14,03,2.80
2014,02,08,14,04,2.80
2014,02,08,14,05,2.80
2014,02,08,14,06,2.80
2014,02,08,14,07,2.80
2014,02,08,14,08,2.80
2014,02,08,14,09,2.80
2014,02,08,14,10,2.90
2014,02,08,14,11,2.90
2014,02,08,14,12,2.90
2014,02,08,14,13,2.90
2014,02,08,14,14,3.00
2014,02,08,14,15,3.00
2014,02,08,14,16,3.00
2014,02,08,14,17,3.00
2014,02,08,14,18,3.00
2014,02,08,14,19,3.00
2014,02,08,14,20,3.00
2014,02,08,14,21,2.90
2014,02,08,14,22,2.90
2014,02,08,14,23,3.00
2014,02,08,14,24,3.00
2014,02,08,14,25,3.10
2014,02,08,14,26,3.00
2014,02,08,14,27,3.00
2014,02,08,14,28,3.00
2014,02,08,14,29,2.90
2014,02,08,14,30,2.90
2014,02,08,14,31,2.90
2014,02,08,14,32,2.90
2014,02,08,14,33,2.90
2014,02,08,14,34,2.90
2014,02,08,14,35,2.90
2014,02,08,14,36,2.90
2014,02,08,14,37,2.90
2014,02,08,14,38,2.90
2014,02,08,14,39,2.90
2014,02,08,14,40,2.90
2014,02,08,14,41,2.90
2014,02,08,14,42,2.90
2014,02,08,14,43,2.90
2014,02,08,14,44,2.90
2014,02,08,14,45,2.90
2014,02,08,14,46,2.90
2014,02,08,14,47,3.00
2014,02,08,14,48,3.00
2014,02,08,14,49,3.10
2014,02,08,14,50,3.10
2014,02,08,14,51,3.20
2014,02,08,14,52,3.20
2014,02,08,14,53,3.20
2014,02,08,14,54,3.20
2014,02,08,14,55,3.20
2014,02,08,14,56,3.30
2014,02,08,14,57,3.30
2014,02,08,14,58,3.40
2014,02,08,14,59,3.40
2014,02,08,15,00,3.40
2014,02,08,15,01,3.40
2014,02,08,15,02,3.40
2014,02,08,15,03,3.40
2014,02,08,15,04,3.40
2014,02,08,15,05,3.40
2014,02,08,15,06,3.40
2014,02,08,15,07,3.40
2014,02,08,15,08,3.50
2014,02,08,15,09,3.50
2014,02,08,15,10,3.50
2014,02,08,15,11,3.60
2014,02,08,15,12,3.60
2014,02,08,15,13,3.50
2014,02,08,15,14,3.50
2014,02,08,15,15,3.50
2014,02,08,15,16,3.40
2014,02,08,15,17,3.40
2014,02,08,15,18,3.40
2014,02,08,15,19,3.30
2014,02,08,15,20,3.30
2014,02,08,15,21,3.30
2014,02,08,15,22,3.30
2014,02,08,15,23,3.30
2014,02,08,15,24,3.30
2014,02,08,15,25,3.30
2014,02,08,15,26,3.40
2014,02,08,15,27,3.40
2014,02,08,15,28,3.40
2014,02,08,15,29,3.40
2014,02,08,15,30,3.40
2014,02,08,15,31,3.40
2014,02,08,15,32,3.40
2014,02,08,15,33,3.40
2014,02,08,15,34,3.40
2014,02,08,15,35,3.40
2014,02,08,15,36,3.40
2014,02,08,15,37,3.40
2014,02,08,15,38,3.40
2014,02,08,15,39,3.40
2014,02,08,15,40,3.40
2014,02,08,15,41,3.40
2014,02,08,15,42,3.40
2014,02,08,15,43,3.40
2014,02,08,15,44,3.40
2014,02,08,15,45,3.40
2014,02,08,15,46,3.40
2014,02,08,15,47,3.40
2014,02,08,15,48,3.50
2014,02,08,15,49,3.50
2014,02,08,15,50,3.50
2014,02,08,15,51,3.60
2014,02,08,15,52,3.60
2014,02,08,15,53,3.60
2014,02,08,15,54,3.60
2014,02,08,15,55,3.60
2014,02,08,15,56,3.50
2014,02,08,15,57,3.50
2014,02,08,15,58,3.50
2014,02,08,15,59,3.50
2014,02,08,16,00,3.50
2014,02,08,16,01,3.60
2014,02,08,16,02,3.50
2014,02,08,16,03,3.60
2014,02,08,16,04,3.60
2014,02,08,16,05,3.60
2014,02,08,16,06,3.60
2014,02,08,16,07,3.60
2014,02,08,16,08,3.60
2014,02,08,16,09,3.70
2014,02,08,16,10,3.70
2014,02,08,16,11,3.80
2014,02,08,16,12,3.80
2014,02,08,16,13,3.90
2014,02,08,16,14,3.90
2014,02,08,16,15,3.90
2014,02,08,16,16,3.90
2014,02,08,16,17,3.90
2014,02,08,16,18,3.90
2014,02,08,16,19,3.80
2014,02,08,16,20,3.80
2014,02,08,16,21,3.80
2014,02,08,16,22,3.80
2014,02,08,16,23,3.80
2014,02,08,16,24,3.90
2014,02,08,16,25,3.90
2014,02,08,16,26,3.90
2014,02,08,16,27,3.90
2014,02,08,16,28,3.90
2014,02,08,16,29,3.90
2014,02,08,16,30,4.00
2014,02,08,16,31,4.00
2014,02,08,16,32,3.90
2014,02,08,16,33,3.90
2014,02,08,16,34,3.80
2014,02,08,16,35,3.80
2014,02,08,16,36,3.70
2014,02,08,16,37,3.70
2014,02,08,16,38,3.60
2014,02,08,16,39,3.60
2014,02,08,16,40,3.50
2014,02,08,16,41,3.50
2014,02,08,16,42,3.40
2014,02,08,16,43,3.40
2014,02,08,16,44,3.30
2014,02,08,16,45,3.30
2014,02,08,16,46,3.20
2014,02,08,16,47,3.20
2014,02,08,16,48,3.20
2014,02,08,16,49,3.20
2014,02,08,16,50,3.20
2014,02,08,16,51,3.20
2014,02,08,16,52,3.20
2014,02,08,16,53,3.20
2014,02,08,16,54,3.10
2014,02,08,16,55,3.10
2014,02,08,16,56,3.10
2014,02,08,16,57,3.10
2014,02,08,16,58,3.10
2014,02,08,16,59,3.10
2014,02,08,17,00,3.10
2014,02,08,17,01,3.00
2014,02,08,17,02,3.00
2014,02,08,17,03,2.90
2014,02,08,17,04,2.90
2014,02,08,17,05,2.90
2014,02,08,17,06,2.80
2014,02,08,17,07,2.80
2014,02,08,17,08,2.70
2014,02,08,17,09,2.70
2014,02,08,17,10,2.60
2014,02,08,17,11,2.50
2014,02,08,17,12,2.40
2014,02,08,17,13,2.40
2014,02,08,17,14,2.30
2014,02,08,17,15,2.30
2014,02,08,17,16,2.20
2014,02,08,17,17,2.10
2014,02,08,17,18,2.00
2014,02,08,17,19,2.00
2014,02,08,17,20,1.90
2014,02,08,17,21,1.90
2014,02,08,17,22,1.80
2014,02,08,17,23,1.80
2014,02,08,17,24,1.80
2014,02,08,17,25,1.70
2014,02,08,17,26,1.70
2014,02,08,17,27,1.70
2014,02,08,17,28,1.60
2014,02,08,17,29,1.60
2014,02,08,17,30,1.50
2014,02,08,17,31,1.50
2014,02,08,17,32,1.40
2014,02,08,17,33,1.30
2014,02,08,17,34,1.30
2014,02,08,17,35,1.30
2014,02,08,17,36,1.20